Location: Unspecified
(49.2528°N, 0.0000°E)
Time: 02:05:47
(UTC+00:00)

Envisat - Visible Passes

Search period start: 04 April 2026 00:00
Search period end: 14 April 2026 00:00
Orbit: 761 x 763 km, 98.4° (Epoch: 29 March)

Date Brightness Start Highest point End Pass type
(mag) Time Alt. Az. Time Alt. Az. Time Alt. Az.
4 Apr 4.7 01:42:32 10° NE 01:46:35 24° E 01:47:13 23° ESE visible
4 Apr 3.2 03:20:53 10° N 03:25:49 54° WNW 03:27:20 39° WSW visible
5 Apr 5.5 01:06:50 10° ENE 01:08:15 11° E 01:09:04 11° E visible
5 Apr 3.0 02:42:58 10° NNE 02:48:04 76° ESE 02:49:12 54° S visible
5 Apr 4.6 04:22:56 10° NNW 04:26:26 19° WNW 04:29:20 12° W visible
6 Apr 4.1 02:05:25 10° NNE 02:10:06 36° E 02:11:04 33° ESE visible
6 Apr 3.7 03:44:25 10° N 03:49:00 35° WNW 03:51:12 24° WSW visible
7 Apr 5.1 01:28:29 10° NE 01:31:56 18° E 01:32:55 17° ESE visible
7 Apr 2.9 03:06:19 10° N 03:11:23 71° WNW 03:13:03 42° SW visible
7 Apr 4.9 04:47:10 10° NNW 04:49:25 13° NW 04:51:40 10° W visible
8 Apr 3.4 02:28:32 10° NNE 02:33:33 57° E 02:34:54 43° SSE visible
8 Apr 4.3 04:08:07 10° N 04:12:07 24° WNW 04:15:02 15° WSW visible
9 Apr 4.5 01:51:09 10° NE 01:55:30 28° E 01:56:45 25° ESE visible
9 Apr 3.4 03:29:47 10° N 03:34:37 45° WNW 03:36:54 28° WSW visible
10 Apr 5.4 01:14:46 10° ENE 01:17:14 13° E 01:18:37 12° ESE visible
10 Apr 2.9 02:51:48 10° NNE 02:56:54 89° ESE 02:58:44 41° SSW visible
10 Apr 4.7 04:32:03 10° NNW 04:35:09 17° NW 04:38:15 10° W visible
11 Apr 3.9 02:14:09 10° NNE 02:18:59 43° E 02:20:36 33° SE visible
11 Apr 4.0 03:53:23 10° N 03:57:46 30° WNW 04:00:44 17° WSW visible
12 Apr 4.9 01:37:01 10° NE 01:40:52 21° E 01:42:27 19° ESE visible
12 Apr 3.1 03:15:11 10° N 03:20:11 59° WNW 03:22:35 30° SW visible
13 Apr 3.2 02:37:19 10° NNE 02:42:24 68° ESE 02:44:26 36° S visible
13 Apr 4.5 04:17:08 10° NNW 04:20:51 21° WNW 04:24:32 10° WSW visible
